Location: Santa Cristina
(46.5667°N, 11.7167°E)
Time: 03:32:38
(UTC+00:00)

Cosmos 1953 - Pass Details

Date: 21 April 2021
Orbit: 537 x 558 km, 82.5° (Epoch: 10 May)

Event Time Altitude Azimuth Distance (km) Brightness Sun altitude
Rises 03:31:12 0° 357° (N) 2,710 6.2 -7.8°
Reaches altitude 10° 03:33:28 10° 5° (N) 1,811 5.4 -7.5°
Maximum altitude 03:37:14 40° 76° (ENE) 810 3.9 -6.9°
Drops below altitude 10° 03:40:57 10° 147° (SSE) 1,793 5.1 -6.3°
Sets 03:43:11 0° 155° (SSE) 2,679 5.9 -6.0°
